Regional Weather Roundup
Issued by NWS Sioux Falls, SD

Home | Current Version | Previous Version | Text Only | Print | Product List | Glossary On
Versions: 1 2 3 4 5 6 7 8 9 10 11 12 13 14 15 16 17 18 19 20 21 22 23 24 25 26 27 28 29 30 31 32 33 34 35 36 37 38 39 40 41 42 43 44 45 46 47 48 49 50
000
ASUS43 KFSD 270102
RWRFSD

WEATHER ROUNDUP FOR SE SOUTH DAKOTA/SW MINNESOTA/NW IOWA
NATIONAL WEATHER SERVICE SIOUX FALLS SD
800 PM CDT MON JUN 26 2017

NOTE: "FAIR" INDICATES FEW OR NO CLOUDS BELOW 12,000 FEET WITH NO
SIGNIFICANT WEATHER AND OR OBSTRUCTIONS TO VISIBILITY.


SDZ038>040-050-052>070-270200-
SOUTHEAST SOUTH DAKOTA

CITY           SKY/WX    TMP DP  RH WIND       PRES   REMARKS
BROOKINGS      SUNNY     66  38  35 CALM      30.15S
CHAMBERLAIN    SUNNY     73  37  26 E6        30.12S
HURON          SUNNY     69  39  33 E6        30.13S
MADISON        FAIR      64  39  39 E5        30.15S
MITCHELL       SUNNY     71  38  29 E8        30.13S
SIOUX FALLS    SUNNY     69  44  40 N6        30.14S
WINNER         FAIR      73  36  25 E8        30.12S
YANKTON        SUNNY     70  37  29 NE3       30.13F
$$

MNZ071-072-080-081-089-090-097-098-270200-
SOUTHWEST MINNESOTA

CITY           SKY/WX    TMP DP  RH WIND       PRES   REMARKS
FAIRMONT       CLEAR     67  42  40 N6        30.14S
JACKSON        CLEAR     64  37  36 CALM      30.15S
LUVERNE        SUNNY     66  32  28 N3        30.15S
MARSHALL       SUNNY     68  41  37 N7        30.14S
MONTEVIDEO     SUNNY     70  41  35 E3        30.13S
PIPESTONE      SUNNY     70  36  28 CALM      30.15S
REDWOOD FALLS  CLEAR     68  40  35 NW5       30.12F
TRACY          SUNNY     68  44  41 NE7       30.14F
WINDOM         CLEAR     66  37  34 N3        30.14F
WORTHINGTON    CLEAR     67  40  37 N7        30.15F
$$

IAZ001>003-012>014-020>022-031-032-NEZ013-014-SDZ071-270200-
NORTHWEST IOWA

CITY           SKY/WX    TMP DP  RH WIND       PRES   REMARKS
CHEROKEE       CLEAR     68  42  39 NE6       30.13F
DENISON        CLEAR     70  45  40 N7        30.14S
ESTHERVILLE    PTCLDY    66  43  43 N3        30.14R
LE MARS        SUNNY     70  39  32 N6        30.14S
ORANGE CITY    SUNNY     70  39  32 NE3       30.14S
SHELDON        CLEAR     68  41  37 N6        30.13S
SIOUX CITY     SUNNY     71  41  33 NE7       30.12S
SPENCER        CLEAR     69  38  32 NE5       30.14S
STORM LAKE     CLEAR     68  39  34 N6        30.14S
$$

ABBREVIATIONS USED IN REMARKS
   TC - TEMPERATURE IN CELSIUS
  WCI - WIND CHILL INDEX
   HX - HEAT INDEX
  VSB - VISIBILITY





USA.gov is the U.S. government's official web portal to all federal, state and local government web resources and services.